| time (UTC) | temp F | wind direction | speed MPH | gust MPH | rain 1hr in | rain 24hr in | rain mn in | humidity % | barometer mb |
| 20260505182216 | 53 | 293 | 4.0 | 7.0 | 0.00 | 0.00 | 0.00 | 50 | 1012.6 |
| 20260505181216 | 53 | 293 | 4.0 | 6.0 | 0.00 | 0.00 | 0.00 | 48 | 1012.5 |
| 20260505180216 | 53 | 293 | 3.0 | 5.0 | 0.00 | 0.00 | 0.00 | 50 | 1012.6 |
| 20260505175216 | 53 | 315 | 3.0 | 5.0 | 0.00 | 0.00 | 0.00 | 48 | 1012.5 |
| 20260505174216 | 53 | 315 | 3.0 | 4.0 | 0.00 | 0.00 | 0.00 | 50 | 1012.7 |
| 20260505173216 | 53 | 270 | 4.0 | 6.0 | 0.00 | 0.00 | 0.00 | 51 | 1012.7 |
| 20260505172216 | 53 | 293 | 4.0 | 7.0 | 0.00 | 0.00 | 0.00 | 51 | 1012.6 |
| 20260505171216 | 53 | 293 | 7.0 | 10.0 | 0.00 | 0.00 | 0.00 | 50 | 1012.7 |
| 20260505170216 | 53 | 315 | 3.0 | 4.0 | 0.00 | 0.00 | 0.00 | 52 | 1012.6 |
| 20260505165216 | 53 | 293 | 7.0 | 10.0 | 0.00 | 0.00 | 0.00 | 50 | 1012.5 |
| 20260505164216 | 53 | 315 | 6.0 | 9.0 | 0.00 | 0.00 | 0.00 | 50 | 1012.6 |
| 20260505163216 | 53 | 315 | 7.0 | 11.0 | 0.00 | 0.00 | 0.00 | 50 | 1012.5 |
| 20260505162216 | 52 | 315 | 4.0 | 7.0 | 0.00 | 0.00 | 0.00 | 53 | 1012.4 |
| 20260505161216 | 52 | 315 | 4.0 | 6.0 | 0.00 | 0.00 | 0.00 | 52 | 1012.3 |
| 20260505160236 | 52 | 293 | 6.0 | 9.0 | 0.00 | 0.00 | 0.00 | 54 | 1012.2 |
| 20260505153216 | 52 | 293 | 5.0 | 8.0 | 0.00 | 0.00 | 0.00 | 51 | 1012.1 |
| 20260505152216 | 52 | 293 | 7.0 | 9.0 | 0.00 | 0.00 | 0.00 | 52 | 1011.9 |
| 20260505150235 | 51 | 0 | 4.0 | 7.0 | 0.00 | 0.00 | 0.00 | 57 | 1011.0 |
| 20260505140216 | 49 | 338 | 2.0 | 4.0 | 0.00 | 0.00 | 0.00 | 64 | 1010.7 |
| 20260505130215 | 47 | 338 | 4.0 | 5.0 | 0.00 | 0.00 | 0.00 | 76 | 1011.1 |
| 20260505124235 | 47 | 315 | 1.0 | 2.0 | 0.00 | 0.00 | 0.00 | 77 | 1012.0 |
| 20260505123215 | 47 | 0 | 2.0 | 2.0 | 0.00 | 0.00 | 0.00 | 76 | 1012.0 |
| 20260505122215 | 47 | 0 | 3.0 | 4.0 | 0.00 | 0.00 | 0.00 | 73 | 1012.0 |
| 20260505121215 | 47 | 0.0 | 0.0 | 0.00 | 0.00 | 0.00 | 71 | 1012.3 | |
| 20260505120215 | 48 | 315 | 2.0 | 3.0 | 0.00 | 0.00 | 0.00 | 70 | 1012.2 |
| 20260505115237 | 48 | 293 | 2.0 | 3.0 | 0.00 | 0.00 | 0.00 | 69 | 1012.5 |
| 20260505114237 | 48 | 0 | 1.0 | 2.0 | 0.00 | 0.00 | 0.00 | 68 | 1012.3 |
| 20260505113217 | 48 | 293 | 4.0 | 5.0 | 0.00 | 0.00 | 0.00 | 67 | 1013.0 |
| 20260505112217 | 48 | 293 | 3.0 | 4.0 | 0.00 | 0.00 | 0.00 | 64 | 1012.8 |
| 20260505111217 | 49 | 315 | 2.0 | 3.0 | 0.00 | 0.00 | 0.00 | 62 | 1011.9 |
| 20260505110217 | 49 | 315 | 4.0 | 8.0 | 0.00 | 0.00 | 0.00 | 63 | 1011.5 |
| 20260505102217 | 51 | 315 | 2.0 | 3.0 | 0.00 | 0.00 | 0.00 | 55 | 1010.9 |
| 20260505101217 | 51 | 0 | 3.0 | 5.0 | 0.00 | 0.00 | 0.00 | 56 | 1010.6 |
| 20260505100217 | 51 | 0 | 3.0 | 4.0 | 0.00 | 0.00 | 0.00 | 59 | 1010.6 |
| 20260505095217 | 51 | 0.0 | 1.0 | 0.00 | 0.00 | 0.00 | 59 | 1010.6 | |
| 20260505094217 | 51 | 0.0 | 0.0 | 0.00 | 0.00 | 0.00 | 59 | 1010.4 | |
| 20260505093217 | 51 | 315 | 2.0 | 3.0 | 0.00 | 0.00 | 0.00 | 59 | 1010.1 |
| 20260505092217 | 51 | 293 | 3.0 | 4.0 | 0.00 | 0.00 | 0.00 | 57 | 1009.8 |
| 20260505091217 | 51 | 315 | 1.0 | 2.0 | 0.00 | 0.00 | 0.00 | 57 | 1009.3 |
| 20260505090217 | 52 | 315 | 3.0 | 5.0 | 0.00 | 0.00 | 0.00 | 56 | 1009.6 |
| 20260505085217 | 52 | 315 | 2.0 | 3.0 | 0.00 | 0.00 | 0.00 | 55 | 1009.2 |
| 20260505084217 | 52 | 315 | 5.0 | 8.0 | 0.00 | 0.00 | 0.00 | 55 | 1008.9 |
| 20260505083217 | 52 | 338 | 5.0 | 7.0 | 0.00 | 0.00 | 0.00 | 55 | 1008.9 |
| 20260505082237 | 53 | 315 | 10.0 | 13.0 | 0.00 | 0.00 | 0.00 | 56 | 1009.0 |
| 20260505081217 | 53 | 315 | 6.0 | 10.0 | 0.00 | 0.00 | 0.00 | 58 | 1008.9 |
| 20260505080236 | 53 | 338 | 4.0 | 6.0 | 0.00 | 0.00 | 0.00 | 61 | 1008.5 |
| 20260505075216 | 53 | 315 | 3.0 | 8.0 | 0.00 | 0.00 | 0.00 | 62 | 1008.6 |
| 20260505074237 | 53 | 315 | 5.0 | 7.0 | 0.00 | 0.00 | 0.00 | 61 | 1008.5 |
| 20260505073237 | 54 | 315 | 5.0 | 8.0 | 0.00 | 0.00 | 0.00 | 60 | 1008.4 |
| 20260505072216 | 54 | 315 | 5.0 | 8.0 | 0.00 | 0.00 | 0.00 | 59 | 1008.4 |
| 20260505071217 | 54 | 338 | 4.0 | 6.0 | 0.00 | 0.00 | 0.00 | 58 | 1008.0 |
| 20260505070217 | 54 | 315 | 7.0 | 10.0 | 0.00 | 0.00 | 0.00 | 58 | 1007.8 |
| 20260505065216 | 53 | 315 | 9.0 | 14.0 | 0.00 | 0.00 | 0.00 | 59 | 1007.7 |
| 20260505064216 | 53 | 293 | 6.0 | 9.0 | 0.00 | 0.00 | 0.00 | 61 | 1007.8 |
| 20260505063216 | 54 | 293 | 4.0 | 6.0 | 0.00 | 0.00 | 0.00 | 62 | 1007.6 |
| 20260505062216 | 55 | 0.0 | 0.0 | 0.00 | 0.00 | 0.00 | 60 | 1007.0 | |
| 20260505061217 | 55 | 0.0 | 0.0 | 0.00 | 0.00 | 0.00 | 58 | 1007.0 | |
| 20260505060216 | 56 | 293 | 2.0 | 4.0 | 0.00 | 0.00 | 0.00 | 55 | 1006.7 |
| 20260505055218 | 56 | 315 | 5.0 | 8.0 | 0.00 | 0.00 | 0.00 | 53 | 1006.3 |
| 20260505054236 | 56 | 315 | 7.0 | 9.0 | 0.00 | 0.00 | 0.00 | 53 | 1006.6 |
| 20260505053236 | 57 | 315 | 4.0 | 5.0 | 0.00 | 0.00 | 0.00 | 52 | 1006.7 |
| 20260505052216 | 57 | 293 | 3.0 | 5.0 | 0.00 | 0.00 | 0.00 | 53 | 1006.4 |
| 20260505051217 | 57 | 315 | 3.0 | 4.0 | 0.00 | 0.00 | 0.00 | 54 | 1005.8 |
| 20260505050216 | 58 | 315 | 5.0 | 8.0 | 0.00 | 0.00 | 0.00 | 53 | 1005.5 |
| 20260505041216 | 59 | 338 | 6.0 | 8.0 | 0.00 | 0.00 | 0.00 | 55 | 1004.3 |
| 20260505040216 | 60 | 338 | 5.0 | 7.0 | 0.00 | 0.00 | 0.00 | 54 | 1004.5 |
| 20260505035236 | 61 | 315 | 9.0 | 11.0 | 0.00 | 0.00 | 0.00 | 52 | 1004.6 |
| 20260505034216 | 61 | 315 | 7.0 | 11.0 | 0.00 | 0.00 | 0.00 | 53 | 1004.7 |
| 20260505033216 | 61 | 315 | 9.0 | 11.0 | 0.00 | 0.00 | 0.00 | 55 | 1004.6 |
| 20260505032216 | 62 | 315 | 6.0 | 12.0 | 0.00 | 0.00 | 0.00 | 55 | 1004.5 |
| 20260505031216 | 62 | 338 | 8.0 | 12.0 | 0.00 | 0.00 | 0.00 | 55 | 1004.4 |
| 20260505030216 | 61 | 315 | 8.0 | 15.0 | 0.00 | 0.00 | 0.00 | 62 | 1004.4 |
| 20260505025216 | 61 | 315 | 7.0 | 11.0 | 0.00 | 0.00 | 0.00 | 67 | 1004.1 |
| 20260505024216 | 61 | 315 | 10.0 | 14.0 | 0.00 | 0.00 | 0.00 | 79 | 1003.6 |
| 20260505023216 | 61 | 315 | 3.0 | 5.0 | 0.00 | 0.00 | 0.00 | 87 | 1003.4 |
| 20260505022216 | 61 | 0.0 | 0.0 | 0.00 | 0.00 | 0.00 | 86 | 1003.2 | |
| 20260505021216 | 61 | 0.0 | 1.0 | 0.00 | 0.00 | 0.00 | 84 | 1003.2 | |
| 20260505020236 | 62 | 270 | 4.0 | 5.0 | 0.00 | 0.00 | 0.00 | 83 | 1002.7 |
| 20260505015216 | 62 | 293 | 2.0 | 2.0 | 0.00 | 0.00 | 0.00 | 80 | 1002.3 |
| 20260505014216 | 63 | 293 | 4.0 | 5.0 | 0.00 | 0.00 | 0.00 | 79 | 1002.2 |
| 20260505013236 | 64 | 270 | 5.0 | 10.0 | 0.00 | 0.00 | 0.00 | 78 | 1002.3 |
| 20260505012216 | 65 | 270 | 2.0 | 3.0 | 0.00 | 0.00 | 0.00 | 75 | 1002.0 |
| 20260505011216 | 66 | 338 | 3.0 | 3.0 | 0.00 | 0.00 | 0.00 | 70 | 1002.1 |
| 20260505010216 | 67 | 338 | 1.0 | 2.0 | 0.00 | 0.00 | 0.00 | 64 | 1001.9 |
| 20260505005236 | 68 | 293 | 7.0 | 10.0 | 0.00 | 0.00 | 0.00 | 61 | 1002.0 |
| 20260505004338 | 70 | 338 | 8.0 | 11.0 | 0.00 | 0.00 | 0.00 | 55 | 1001.1 |
| 20260505003616 | 72 | 45 | 4.0 | 9.0 | 0.00 | 0.00 | 0.00 | 51 | 1001.2 |
| 20260505002616 | 75 | 0 | 5.0 | 8.0 | 0.00 | 0.00 | 0.00 | 46 | 1001.0 |
| 20260505001616 | 76 | 270 | 5.0 | 9.0 | 0.00 | 0.00 | 0.00 | 46 | 1000.4 |
| 20260505000616 | 76 | 225 | 10.0 | 14.0 | 0.00 | 0.00 | 0.00 | 46 | 1000.4 |
| 20260504235616 | 77 | 180 | 6.0 | 10.0 | 0.00 | 0.00 | 0.00 | 45 | 999.8 |
| 20260504234615 | 77 | 203 | 6.0 | 9.0 | 0.00 | 0.00 | 0.00 | 44 | 1000.1 |
| 20260504233615 | 78 | 225 | 9.0 | 14.0 | 0.00 | 0.00 | 0.00 | 44 | 1000.3 |
| 20260504232615 | 79 | 180 | 6.0 | 10.0 | 0.00 | 0.00 | 0.00 | 43 | 1000.4 |
| 20260504231616 | 80 | 225 | 10.0 | 21.0 | 0.00 | 0.00 | 0.00 | 41 | 1000.4 |
| 20260504230615 | 80 | 248 | 12.0 | 22.0 | 0.00 | 0.00 | 0.00 | 41 | 1000.2 |
| 20260504225615 | 80 | 225 | 8.0 | 14.0 | 0.00 | 0.00 | 0.00 | 42 | 999.9 |
| 20260504224615 | 80 | 180 | 7.0 | 12.0 | 0.00 | 0.00 | 0.00 | 42 | 1000.0 |
| 20260504223615 | 80 | 180 | 10.0 | 18.0 | 0.00 | 0.00 | 0.00 | 41 | 1000.3 |
| 20260504222615 | 80 | 225 | 9.0 | 16.0 | 0.00 | 0.00 | 0.00 | 40 | 1000.3 |
| 20260504221616 | 80 | 203 | 11.0 | 17.0 | 0.00 | 0.00 | 0.00 | 38 | 1000.4 |
| 20260504220615 | 81 | 225 | 7.0 | 11.0 | 0.00 | 0.00 | 0.00 | 40 | 1000.3 |
| 20260504215615 | 81 | 203 | 10.0 | 17.0 | 0.00 | 0.00 | 0.00 | 40 | 1000.5 |
| 20260504214617 | 81 | 158 | 8.0 | 13.0 | 0.00 | 0.00 | 0.00 | 41 | 1000.6 |
| 20260504213617 | 81 | 203 | 6.0 | 9.0 | 0.00 | 0.00 | 0.00 | 40 | 1000.8 |
| 20260504212617 | 81 | 180 | 7.0 | 10.0 | 0.00 | 0.00 | 0.00 | 41 | 1000.8 |
| 20260504211617 | 81 | 203 | 8.0 | 15.0 | 0.00 | 0.00 | 0.00 | 40 | 1001.0 |
| 20260504210617 | 81 | 203 | 8.0 | 18.0 | 0.00 | 0.00 | 0.00 | 41 | 1001.2 |
| 20260504205617 | 81 | 248 | 8.0 | 14.0 | 0.00 | 0.00 | 0.00 | 40 | 1001.3 |
| 20260504204617 | 81 | 225 | 12.0 | 16.0 | 0.00 | 0.00 | 0.00 | 40 | 1001.5 |
| 20260504203617 | 80 | 225 | 10.0 | 18.0 | 0.00 | 0.00 | 0.00 | 41 | 1001.7 |
| 20260504202617 | 81 | 225 | 13.0 | 18.0 | 0.00 | 0.00 | 0.00 | 39 | 1001.8 |
| 20260504201617 | 80 | 225 | 7.0 | 12.0 | 0.00 | 0.00 | 0.00 | 41 | 1001.8 |
| 20260504200617 | 81 | 225 | 10.0 | 17.0 | 0.00 | 0.00 | 0.00 | 40 | 1001.8 |
| 20260504195638 | 81 | 203 | 9.0 | 15.0 | 0.00 | 0.00 | 0.00 | 41 | 1001.9 |
| 20260504194617 | 80 | 225 | 10.0 | 16.0 | 0.00 | 0.00 | 0.00 | 41 | 1002.0 |
| 20260504193617 | 80 | 203 | 6.0 | 12.0 | 0.00 | 0.00 | 0.00 | 42 | 1001.9 |
| 20260504192617 | 80 | 203 | 8.0 | 14.0 | 0.00 | 0.00 | 0.00 | 42 | 1001.9 |
| 20260504191617 | 79 | 248 | 6.0 | 8.0 | 0.00 | 0.00 | 0.00 | 43 | 1002.0 |
| 20260504190617 | 79 | 248 | 12.0 | 19.0 | 0.00 | 0.00 | 0.00 | 43 | 1002.0 |
| 20260504185617 | 79 | 203 | 4.0 | 9.0 | 0.00 | 0.00 | 0.00 | 44 | 1002.1 |
| 20260504184617 | 79 | 203 | 12.0 | 17.0 | 0.00 | 0.00 | 0.00 | 42 | 1002.2 |
| 20260504183657 | 79 | 203 | 9.0 | 17.0 | 0.00 | 0.00 | 0.00 | 45 | 1002.1 |
| 20260504182617 | 78 | 180 | 7.0 | 12.0 | 0.00 | 0.00 | 0.00 | 45 | 1002.2 |